AAL10 KLAX-KJFK

Flight info

Callsign AAL10
Flight time N/A
Altitude 35000
Route DOTSS2 CLEEE PKE GUP KK45A ROKNE BUM VHP KI63Q KLYNE Q29 WWSHR JHW Q476 WLKES PUCKY1
Aircraft B77W/H-SDE1E2E3FGHIJ2J3J4J5M1RWXY/LB1D1

Departure

Time 2026-04-23 22:47
Airport Los Angeles International Airport (KLAX)

Arrival

Time N/A
Airport John F. Kennedy International Airport (KJFK)
Time Latitude Longitude Altitude Speed Heading
2026-04-23 22:03 33.94020 -118.41086 149 ft 0 kts 83°
2026-04-23 22:32 33.94020 -118.41087 130 ft 1 kts 83°
2026-04-23 22:32 33.94018 -118.41106 129 ft 3 kts 83°
2026-04-23 22:32 33.94015 -118.41130 126 ft 3 kts 83°
2026-04-23 22:32 33.94013 -118.41151 126 ft 1 kts 83°
2026-04-23 22:33 33.94012 -118.41170 125 ft 3 kts 111°
2026-04-23 22:33 33.94021 -118.41185 125 ft 3 kts 164°
2026-04-23 22:33 33.94041 -118.41188 128 ft 3 kts 175°
2026-04-23 22:33 33.94049 -118.41189 125 ft 0 kts 173°
2026-04-23 22:37 33.94048 -118.41189 125 ft 0 kts 173°
2026-04-23 22:37 33.94031 -118.41187 125 ft 9 kts 172°
2026-04-23 22:37 33.93956 -118.41177 126 ft 11 kts 169°
2026-04-23 22:38 33.93880 -118.41165 128 ft 11 kts 173°
2026-04-23 22:38 33.93809 -118.41154 127 ft 8 kts 172°
2026-04-23 22:38 33.93775 -118.41119 127 ft 6 kts 111°
2026-04-23 22:38 33.93773 -118.41037 130 ft 19 kts 87°
2026-04-23 22:39 33.93792 -118.40840 129 ft 24 kts 83°
2026-04-23 22:39 33.93814 -118.40637 129 ft 24 kts 83°
2026-04-23 22:39 33.93828 -118.40494 128 ft 15 kts 83°
2026-04-23 22:39 33.93841 -118.40366 128 ft 15 kts 83°
2026-04-23 22:40 33.93854 -118.40238 126 ft 15 kts 83°
2026-04-23 22:40 33.93867 -118.40110 126 ft 17 kts 83°
2026-04-23 22:40 33.93911 -118.39677 126 ft 31 kts 82°
2026-04-23 22:41 33.93936 -118.39436 127 ft 28 kts 82°
2026-04-23 22:41 33.93961 -118.39210 128 ft 21 kts 83°
2026-04-23 22:41 33.93977 -118.39038 130 ft 21 kts 83°
2026-04-23 22:41 33.93994 -118.38867 130 ft 21 kts 82°
2026-04-23 22:42 33.94012 -118.38701 125 ft 13 kts 83°
2026-04-23 22:42 33.94022 -118.38594 129 ft 13 kts 83°
2026-04-23 22:42 33.94032 -118.38489 130 ft 10 kts 83°
2026-04-23 22:42 33.94037 -118.38441 127 ft 6 kts 83°
2026-04-23 22:43 33.94042 -118.38391 126 ft 8 kts 81°
2026-04-23 22:43 33.94058 -118.38254 130 ft 23 kts 82°
2026-04-23 22:43 33.94073 -118.38114 130 ft 7 kts 83°
2026-04-23 22:43 33.94074 -118.38054 130 ft 9 kts 102°
2026-04-23 22:44 33.94003 -118.38010 128 ft 15 kts 194°
2026-04-23 22:44 33.93980 -118.38063 128 ft 6 kts 269°
2026-04-23 22:44 33.93979 -118.38079 129 ft 0 kts 264°
2026-04-23 22:46 33.93970 -118.38175 128 ft 35 kts 263°
2026-04-23 22:46 33.93910 -118.38741 125 ft 98 kts 263°
2026-04-23 22:46 33.93804 -118.39773 128 ft 148 kts 263°
2026-04-23 22:47 33.93663 -118.41149 273 ft 173 kts 262°
2026-04-23 22:47 33.93478 -118.42598 782 ft 186 kts 258°
2026-04-23 22:47 33.93278 -118.44188 1934 ft 198 kts 262°
2026-04-23 22:47 33.93107 -118.45849 2585 ft 204 kts 253°
2026-04-23 22:48 33.92326 -118.47367 2825 ft 230 kts 227°
2026-04-23 22:48 33.91210 -118.48923 3125 ft 261 kts 229°
2026-04-23 22:48 33.90008 -118.50626 3886 ft 272 kts 229°
2026-04-23 22:48 33.88775 -118.52370 4869 ft 278 kts 229°
2026-04-23 22:49 33.87504 -118.54164 5745 ft 282 kts 227°
2026-04-23 22:49 33.85811 -118.55638 6684 ft 288 kts 200°
2026-04-23 22:49 33.83184 -118.55786 7914 ft 289 kts 171°
2026-04-23 22:49 33.77481 -118.54197 10386 ft 303 kts 171°
2026-04-23 22:50 33.75364 -118.53617 10850 ft 324 kts 171°
2026-04-23 22:50 33.73062 -118.52995 11074 ft 351 kts 169°
2026-04-23 22:50 33.70726 -118.51819 11222 ft 384 kts 146°
2026-04-23 22:50 33.67322 -118.44340 13023 ft 413 kts 108°
2026-04-23 22:51 33.64181 -118.30728 15950 ft 444 kts 90°
2026-04-23 22:51 33.64451 -118.15595 19056 ft 464 kts 89°